This is the latest recevied weather packets stored in our database for station/object F5ZQC-13. If no packets are shown the sender has not sent any weather packets the latest 1 day(s).
| Time | Temp. | Humidity | Pressure | Rain* | Wind** | Luminosity | Snow |
|---|---|---|---|---|---|---|---|
| 1778063644 | 22.78° C | 27% | 1009.8 hPa | 0 mm | - | - | - |
| 1778061805 | 23.33° C | 28% | 1009.8 hPa | 0 mm | - | - | - |
| 1778061683 | 23.33° C | 28% | 1009.9 hPa | 0 mm | - | - | - |
| 1778061442 | 23.33° C | 31% | 1009.9 hPa | 0 mm | - | - | - |
| 1778060583 | 22.22° C | 31% | 1009.9 hPa | 0 mm | - | - | - |
| 1778058904 | 21.11° C | 33% | 1009.9 hPa | 0 mm | - | - | - |
| 1778058013 | 21.11° C | 33% | 1009.8 hPa | 0 mm | - | - | - |
| 1778057034 | 20.56° C | 35% | 1009.6 hPa | 0 mm | - | - | - |
| 1778056415 | 19.44° C | 39% | 1009.7 hPa | 0 mm | - | - | - |
| 1778055797 | 18.89° C | 40% | 1009.7 hPa | 0 mm | - | - | - |
| 1778054710 | 17.78° C | 42% | 1009.7 hPa | 0 mm | - | - | - |
| 1778054100 | 17.22° C | 43% | 1009.8 hPa | 0 mm | - | - | - |
| 1778053345 | 16.11° C | 46% | 1009.8 hPa | 0 mm | - | - | - |
| 1778053222 | 16.11° C | 46% | 1009.9 hPa | 0 mm | - | - | - |
| 1778052830 | 15° C | 48% | 1009.9 hPa | 0 mm | - | - | - |
| 1778052522 | 14.44° C | 51% | 1009.7 hPa | 0 mm | - | - | - |
| 1778052400 | 14.44° C | 52% | 1010 hPa | 0 mm | - | - | - |
| 1778052278 | 13.89° C | 51% | 1009.9 hPa | 0 mm | - | - | - |
| 1778052161 | 13.89° C | 52% | 1009.9 hPa | 0 mm | - | - | - |
| 1778051808 | 13.33° C | 50% | 1009.9 hPa | 0 mm | - | - | - |
| 1778051566 | 13.33° C | 50% | 1009.9 hPa | 0 mm | - | - | - |
| 1778051321 | 13.33° C | 51% | 1009.6 hPa | 0 mm | - | - | - |
| 1778051196 | 12.78° C | 51% | 1009.7 hPa | 0 mm | - | - | - |
| 1778049484 | 12.22° C | 52% | 1009.8 hPa | 0 mm | - | - | - |
| 1778049240 | 12.22° C | 52% | 1009.9 hPa | 0 mm | - | - | - |
* Rain since midnight (hover to see other rain measurements)
** Current wind speed in m/s (hover to see current wind gust speed)